Regional Weather Roundup
Issued by NWS Little Rock, AR

Home | Current Version | Previous Version | Graphics & Text | Print | Product List | Glossary On
Versions: 1 2 3 4 5 6 7 8 9 10 11 12 13 14 15 16 17 18 19 20 21 22 23 24 25 26 27 28 29 30 31 32 33 34 35 36 37 38 39 40 41 42 43 44 45 46 47 48 49 50
000
ASUS44 KLZK 300105
RWRLZK

WEATHER ROUNDUP FOR ARKANSAS
NATIONAL WEATHER SERVICE LITTLE ROCK AR
800 PM CDT MON JUN 29 2015

NOTE: "FAIR" INDICATES FEW OR NO CLOUDS BELOW 12,000 FEET WITH NO
SIGNIFICANT WEATHER AND/OR OBSTRUCTIONS TO VISIBILITY.

ARZ001-003-010-029-300200-
NORTHWEST ARKANSAS

CITY           SKY/WX    TMP DP  RH WIND       PRES   REMARKS
FAYETTEVILLE   CLEAR     78  69  73 CALM      29.93F
FORT SMITH     CLEAR     86  64  47 N8        29.88S HX  87
HARRISON       CLEAR     77  66  68 NW3       29.94S
BENTONVILLE    CLEAR     81  61  50 N3        29.95S
ROGERS         CLEAR     79  66  64 NW3       29.95S
SILOAM SPGS    CLEAR     81  64  57 N3        29.94S
HIGHFILL       CLEAR     81  67  62 N5        29.94S
SPRINGDALE     CLEAR     82  63  51 N5        29.96S
$$

ARZ004-005-016-300200-
NORTH CENTRAL ARKANSAS

CITY           SKY/WX    TMP DP  RH WIND       PRES   REMARKS
BATESVILLE     CLEAR     82  66  57 W3        29.87S HX  85
FLIPPIN          N/A     82  64  54 NW5       29.88S
MTN HOME       CLEAR     77  68  73 CALM      29.90R
$$

ARZ040-041-300200-
WEST CENTRAL ARKANSAS

CITY           SKY/WX    TMP DP  RH WIND       PRES   REMARKS
MENA           MOCLDY    86  73  66 S3        29.93R HX  93
MOUNT IDA      MOCLDY    84  73  69 VRB6      29.89R HX  90
$$

ARZ009-017-025-026-028-300200-
NORTHEAST ARKANSAS

CITY           SKY/WX    TMP DP  RH WIND       PRES   REMARKS
JONESBORO      CLEAR     85  64  49 NW5       29.85S HX  86
NEWPORT        CLEAR     85  66  52 NW6       29.87S HX  87
WALNUT RIDGE   CLEAR     84  64  51 W6        29.85S HX  86
BLYTHEVILLE    PTCLDY    85  67  54 W5        29.85R HX  87
$$

ARZ022-023-033-042-044-300200-
CENTRAL ARKANSAS

CITY           SKY/WX    TMP DP  RH WIND       PRES   REMARKS
LITTLE ROCK    MOCLDY    86  72  62 SW6       29.86F HX  92
N LITTLE ROCK  MOCLDY    85  74  69 NW2       29.86F HX  93
JACKSONVILLE   CLEAR     86  71  60 W3        29.86F HX  92
SEARCY         PTCLDY    83  75  77 CALM      29.88S HX  90
HOT SPRINGS    PTCLDY    85  74  69 SW6       29.90S HX  92
RUSSELLVILLE   CLEAR     83  71  67 CALM      29.87S HX  87
CLINTON        FAIR      81  73  78 CALM      29.89S HX  85
$$

ARZ036-300200-
EAST ARKANSAS

CITY           SKY/WX    TMP DP  RH WIND       PRES   REMARKS
WEST MEMPHIS   PTCLDY    85  72  65 SW8       29.84S HX  91
$$

ARZ050-053-066-070-073-300200-
SOUTHWEST ARKANSAS

CITY           SKY/WX    TMP DP  RH WIND       PRES   REMARKS
ARKADELPHIA    FAIR      85  78  79 W5        29.88F HX  96
CAMDEN         CLEAR     86  73  66 E3        29.87F HX  93
TEXARKANA      CLEAR     87  72  60 SW7       29.89F HX  93
EL DORADO      PTCLDY    84  75  74 S8        29.90F HX  92
DE QUEEN       PTCLDY    86  76  71 S3        29.87S HX  96
$$

ARZ056-057-069-300200-
SOUTHEAST ARKANSAS

CITY           SKY/WX    TMP DP  RH WIND       PRES   REMARKS
PINE BLUFF     PTCLDY    83  73  72 SW5       29.88F HX  89
STUTTGART      PTCLDY    84  73  70 SW10      29.88S THUNDER HX  91
MONTICELLO     CLEAR     86  75  69 CALM      29.90S HX  95

$$





USA.gov is the U.S. government's official web portal to all federal, state and local government web resources and services.